アトラス彗星

C/2017 T3 ( ATLAS )

English version
Home page
Updated on July 17, 2018

---------------------------------------------------------------------

・ プロフィール

発見日 2017年10月14日
発見光度 18.3等
発見者 Asteroid Terrestrial-impact Last Alert System (ATLAS) search program

・ 写真集

・ 軌道要素

Epoch 2018 July 21.0 TT = JDT 2458320.5
T 2018 July 19.15078 TT                                 MPCW
q   0.8253484            (2000.0)            P               Q
z  +0.0007505      Peri.  246.88684     +0.22858597     -0.60007619
 +/-0.0000034      Node   230.08579     +0.65976524     -0.48353732
e   0.9993806      Incl.   88.10814     -0.71586192     -0.63725993
From 503 observations 2017 Sept. 11-2018 Mar. 22, mean residual 0".5.

・ 星図

・ 光度変化

        m1 = 9.0 + 5 logΔ + 10.0 log r

---------------------------------------------------------------------

軌道要素はM.P.E.C. 2018-F152に掲載されたものです。
星図はステラナビゲータ Ver.10 (アストロアーツ) で作成したものです。
光度グラフはComet for Windowsで作成したものです。

---------------------------------------------------------------------

Copyright(C) Seiichi Yoshida (comet@aerith.net). All rights reserved.